Grand Island, NE

9:52 AM CST on February 22, 2018 (GMT -0600)
Central Nebraska Regional

Weather History for KGRI - July, 2012

Change the Weather History Date:

Thursday, July 12, 2012

  Actual Average Record
Temperature  
Mean Temperature 78 °F 76 °F  
Max Temperature 95 °F 88 °F 111 °F (1939)
Min Temperature 60 °F 65 °F 50 °F (1922)
Degree Days  
Heating Degree Days 0 0  
Month to date heating degree days 0 0  
Since 1 June heating degree days 11 24  
Since 1 July heating degree days 0 0  
Cooling Degree Days 13 12  
Month to date cooling degree days 197 133  
Year to date cooling degree days 718 411  
Since 1 June cooling degree days 536 346  
Growing Degree Days 28 (Base 50)    
Moisture  
Dew Point 60 °F    
Average Humidity 63    
Maximum Humidity 97    
Minimum Humidity 28    
Precipitation  
Precipitation 0.00 in 0.11 in 0.98 in (2017)
Month to date precipitation 0.09 1.37  
Year to date precipitation 7.10 15.62  
Snow  
Snow 0.00 in 0.00 in - ()
Month to date snowfall 0.0 0.0  
Since 1 June snowfall 0.0 0.0  
Since 1 July snowfall 0.0 0.0  
Snow Depth 0.00 in    
Sea Level Pressure  
Sea Level Pressure 29.98 in    
Wind  
Wind Speed 5 mph (SW)    
Max Wind Speed 24 mph    
Max Gust Speed 31 mph    
Visibility 10 miles    
Events      
T = Trace of Precipitation, MM = Missing Value Source: NWS Daily Summary

Daily Weather History Graph

Daily Weather History Graph

Search for Another Location

Airport or City:

Trip Planner

Search our weather history database for the weather conditions in past years. The results will help you decide how hot, cold, wet, or windy it might be!

Date:

Astronomy

Jul. 12, 2012 Rise Set
Actual Time 6:12 AM CDT 9:05 PM CDT
Civil Twilight 5:39 AM CDT 9:37 PM CDT
Nautical Twilight 4:58 AM CDT 10:19 PM CDT
Astronomical Twilight 4:10 AM CDT 11:06 PM CDT
Moon 1:18 AM CDT (7/12) 3:38 PM CDT (7/12)
Length of Visible Light 15h 58m
Length of Day
14h 53m
Waning Crescent, 35% of the Moon is Illuminated
Jul 12
Waning Crescent
Jul 18
New
Jul 26
First Quarter
Aug 1
Full
Aug 9
Last Quarter

Hourly Weather History & Observations

Time (CDT) Temp. Heat Index Dew Point Humidity Pressure Visibility Wind Dir Wind Speed Gust Speed Precip Events Conditions
12:53 AM 66.9 °F - 61.0 °F 81% 30.03 in 10.0 mi South 3.5 mph - N/A   Clear
1:53 AM 66.0 °F - 61.0 °F 84% 30.02 in 10.0 mi Calm Calm - N/A   Clear
2:53 AM 64.9 °F - 61.0 °F 87% 30.01 in 10.0 mi South 4.6 mph - N/A   Clear
3:53 AM 61.0 °F - 59.0 °F 93% 30.00 in 10.0 mi Calm Calm - N/A   Clear
4:53 AM 63.0 °F - 59.0 °F 87% 30.00 in 8.0 mi Calm Calm - N/A   Clear
5:53 AM 61.0 °F - 59.0 °F 93% 30.01 in 8.0 mi WNW 4.6 mph - N/A   Clear
6:53 AM 62.1 °F - 59.0 °F 90% 29.99 in 6.0 mi Calm Calm - N/A   Clear
7:53 AM 69.1 °F - 62.1 °F 78% 30.00 in 8.0 mi Calm Calm - N/A   Clear
8:53 AM 79.0 °F - 64.0 °F 60% 29.99 in 10.0 mi West 5.8 mph - N/A   Clear
9:53 AM 82.9 °F 84.4 °F 64.0 °F 53% 29.99 in 10.0 mi WSW 6.9 mph - N/A   Clear
10:53 AM 86.0 °F 86.3 °F 62.1 °F 44% 29.99 in 10.0 mi SW 6.9 mph - N/A   Clear
11:53 AM 90.0 °F 88.6 °F 57.0 °F 33% 29.99 in 10.0 mi West 10.4 mph - N/A   Clear
12:53 PM 91.9 °F 89.5 °F 54.0 °F 27% 29.98 in 10.0 mi WSW 10.4 mph - N/A   Clear
1:53 PM 93.0 °F 91.4 °F 55.9 °F 29% 29.97 in 10.0 mi West 10.4 mph - N/A   Clear
2:53 PM 93.9 °F 92.0 °F 55.0 °F 27% 29.96 in 10.0 mi SW 9.2 mph - N/A   Clear
3:53 PM 93.9 °F 92.6 °F 57.0 °F 29% 29.95 in 10.0 mi SSE 9.2 mph - N/A   Clear
4:53 PM 93.9 °F 92.0 °F 55.0 °F 27% 29.93 in 10.0 mi SSE 10.4 mph 17.3 mph N/A   Clear
5:53 PM 91.0 °F 90.2 °F 59.0 °F 34% 29.94 in 10.0 mi South 10.4 mph - N/A   Clear
6:53 PM 89.1 °F 88.2 °F 59.0 °F 36% 29.96 in 10.0 mi Calm Calm - N/A   Clear
7:53 PM 82.9 °F 85.4 °F 66.9 °F 58% 29.98 in 10.0 mi ENE 5.8 mph - N/A   Clear
8:53 PM 77.0 °F - 63.0 °F 62% 29.96 in 10.0 mi SE 5.8 mph - N/A   Clear
9:53 PM 75.0 °F - 64.0 °F 69% 29.96 in 10.0 mi Calm Calm - N/A   Clear
10:53 PM 73.9 °F - 64.9 °F 73% 29.98 in 10.0 mi WNW 3.5 mph - N/A   Clear
11:53 PM 73.0 °F - 66.0 °F 79% 29.97 in 10.0 mi North 3.5 mph - N/A   Mostly Cloudy